OK,56,23,697,56,2014-10-01T01:40:00,0,28072024,179064
OK,56,23,697,56,2014-10-01T01:45:00,0,28072467,179064
OK,43,30,697,43,2014-10-01T01:50:00,2,28072916,179064
OK,55,23,697,55,2014-10-01T01:55:00,1,28073363,179064
OK,55,23,697,55,2014-10-01T02:05:00,0,28074129,179064
OK,55,23,697,55,2014-10-01T02:10:00,0,28074578,179064
OK,28,46,697,28,2014-10-01T02:15:00,1,28075018,179064
OK,28,46,697,28,2014-10-01T02:20:00,0,28075467,179064
OK,28,46,697,28,2014-10-01T02:25:00,0,28075916,179064
OK,28,46,697,28,2014-10-01T02:30:00,0,28076299,179064
OK,28,46,697,28,2014-10-01T02:35:00,0,28076748,179064
OK,43,30,697,43,2014-10-01T02:40:00,2,28077197,179064
OK,31,41,697,31,2014-10-01T02:45:00,1,28077646,179064
OK,39,33,697,39,2014-10-01T02:50:00,1,28078049,179064
OK,39,33,697,39,2014-10-01T02:55:00,0,28078498,179064
OK,39,33,697,39,2014-10-01T03:00:00,0,28078943,179064
OK,39,33,697,39,2014-10-01T03:05:00,0,28079391,179064
OK,39,33,697,39,2014-10-01T03:10:00,0,28079834,179064
OK,39,33,697,39,2014-10-01T03:15:00,0,28080283,179064
OK,44,29,697,44,2014-10-01T03:20:00,1,28080617,179064
OK,47,27,697,47,2014-10-01T03:25:00,4,28081066,179064
OK,50,25,697,50,2014-10-01T03:30:00,3,28081515,179064
OK,51,25,697,51,2014-10-01T03:35:00,0,28081962,179064
OK,48,27,697,48,2014-10-01T03:40:00,4,28082411,179064
OK,36,36,697,36,2014-10-01T03:45:00,6,28082844,179064
OK,56,23,697,56,2014-10-01T03:50:00,7,28083276,179064
OK,43,30,697,43,2014-10-01T03:55:00,4,28083725,179064
OK,30,43,697,30,2014-10-01T04:00:00,3,28084174,179064
OK,67,19,697,67,2014-10-01T04:05:00,3,28084615,179064
OK,48,27,697,48,2014-10-01T04:10:00,10,28085040,179064
OK,50,25,697,50,2014-10-01T04:15:00,15,28085489,179064
OK,47,27,697,47,2014-10-01T04:20:00,15,28085934,179064
OK,49,26,697,49,2014-10-01T04:25:00,14,28086383,179064
OK,48,27,697,48,2014-10-01T04:30:00,15,28086825,179064
OK,38,34,697,38,2014-10-01T04:35:00,15,28087274,179064
OK,37,35,697,37,2014-10-01T04:40:00,18,28087719,179064
OK,38,34,697,38,2014-10-01T04:45:00,11,28088168,179064
OK,54,24,697,54,2014-10-01T04:50:00,13,28088592,179064
OK,50,25,697,50,2014-10-01T04:55:00,12,28089041,179064
OK,57,22,697,57,2014-10-01T05:00:00,10,28089471,179064
OK,55,23,697,55,2014-10-01T05:05:00,25,28089920,179064
OK,44,29,697,44,2014-10-01T05:10:00,32,28090369,179064
OK,50,25,697,50,2014-10-01T05:15:00,23,28090713,179064
OK,53,24,697,53,2014-10-01T05:20:00,26,28091162,179064
OK,54,24,697,54,2014-10-01T05:25:00,26,28091611,179064
OK,50,25,697,50,2014-10-01T05:30:00,24,28092028,179064
OK,49,26,697,49,2014-10-01T05:35:00,27,28092477,179064
OK,50,25,697,50,2014-10-01T05:40:00,28,28092921,179064
OK,53,24,697,53,2014-10-01T05:45:00,28,28093362,179064
OK,54,24,697,54,2014-10-01T05:50:00,25,28093793,179064
OK,53,24,697,53,2014-10-01T05:55:00,24,28094242,179064
OK,58,22,697,58,2014-10-01T06:00:00,22,28094653,179064
OK,46,28,697,46,2014-10-01T06:05:00,14,28095098,179064
OK,60,21,697,60,2014-10-01T06:10:00,23,28095545,179064
OK,62,20,697,62,2014-10-01T06:15:00,27,28095994,179064
OK,54,24,697,54,2014-10-01T06:20:00,13,28096407,179064
OK,47,27,697,47,2014-10-01T06:25:00,20,28096856,179064
OK,47,27,697,47,2014-10-01T06:30:00,18,28097290,179064
OK,55,23,697,55,2014-10-01T06:35:00,15,28097739,179064
OK,46,28,697,46,2014-10-01T06:40:00,11,28098188,179064
OK,53,24,697,53,2014-10-01T06:45:00,17,28098625,179064
OK,53,24,697,53,2014-10-01T06:50:00,18,28099069,179064
OK,44,29,697,44,2014-10-01T06:55:00,13,28099517,179064
OK,44,29,697,44,2014-10-01T07:00:00,13,28099860,179064
OK,49,26,697,49,2014-10-01T07:10:00,27,28100616,179064
OK,41,31,697,41,2014-10-01T07:15:00,24,28101064,179064
OK,41,31,697,41,2014-10-01T07:20:00,20,28101436,179064
OK,40,32,697,40,2014-10-01T07:25:00,26,28101885,179064
OK,40,32,697,40,2014-10-01T07:30:00,29,28102321,179064
OK,40,32,697,40,2014-10-01T07:35:00,22,28102770,179064
OK,40,32,697,40,2014-10-01T07:40:00,25,28103197,179064
OK,43,30,697,43,2014-10-01T07:45:00,28,28103644,179064
OK,35,37,697,35,2014-10-01T07:50:00,21,28104089,179064
OK,35,37,697,35,2014-10-01T07:55:00,30,28104534,179064
OK,42,30,697,42,2014-10-01T08:00:00,25,28104975,179064
OK,45,28,697,45,2014-10-01T08:05:00,29,28105420,179064
OK,39,33,697,39,2014-10-01T08:10:00,34,28105860,179064
OK,41,31,697,41,2014-10-01T08:15:00,25,28106309,179064
OK,47,27,697,47,2014-10-01T08:20:00,19,28106746,179064
OK,45,28,697,45,2014-10-01T08:25:00,14,28107152,179064
OK,40,32,697,40,2014-10-01T08:30:00,20,28107584,179064
OK,40,32,697,40,2014-10-01T08:35:00,24,28108033,179064
OK,38,34,697,38,2014-10-01T08:40:00,22,28108472,179064
OK,34,38,697,34,2014-10-01T08:45:00,22,28108921,179064
OK,39,33,697,39,2014-10-01T08:50:00,19,28109349,179064
OK,39,33,697,39,2014-10-01T09:00:00,25,28110141,179064
OK,40,32,697,40,2014-10-01T09:05:00,31,28110590,179064
OK,47,27,697,47,2014-10-01T09:10:00,39,28111013,179064
OK,45,28,697,45,2014-10-01T09:15:00,32,28111462,179064
OK,43,30,697,43,2014-10-01T09:20:00,19,28111891,179064
OK,36,36,697,36,2014-10-01T09:30:00,30,28112681,179064
OK,38,34,697,38,2014-10-01T09:35:00,25,28113130,179064
OK,40,32,697,40,2014-10-01T09:40:00,2,28113554,179064
OK,42,30,697,42,2014-10-01T09:45:00,10,28114003,179064
OK,37,35,697,37,2014-10-01T09:50:00,14,28114435,179064
OK,39,33,697,39,2014-10-01T10:00:00,23,28115238,179064
OK,37,35,697,37,2014-10-01T10:05:00,36,28115687,179064
OK,37,35,697,37,2014-10-01T10:10:00,25,28116099,179064
OK,43,30,697,43,2014-10-01T10:15:00,28,28116548,179064
OK,44,29,697,44,2014-10-01T10:20:00,33,28116956,179064
OK,40,32,697,40,2014-10-01T10:25:00,21,28117405,179064
OK,36,36,697,36,2014-10-01T10:30:00,25,28117830,179064
OK,32,40,697,32,2014-10-01T10:35:00,18,28118279,179064
OK,31,41,697,31,2014-10-01T10:40:00,16,28118724,179064
OK,36,36,697,36,2014-10-01T10:45:00,18,28119171,179064
OK,39,33,697,39,2014-10-01T10:50:00,24,28119615,179064
OK,43,30,697,43,2014-10-01T10:55:00,27,28120063,179064
OK,39,33,697,39,2014-10-01T11:00:00,42,28120511,179064
OK,39,33,697,39,2014-10-01T11:05:00,42,28120960,179064
OK,38,34,697,38,2014-10-01T11:10:00,28,28121343,179064
OK,40,32,697,40,2014-10-01T11:15:00,28,28121792,179064
OK,36,36,697,36,2014-10-01T11:20:00,29,28122230,179064
OK,37,35,697,37,2014-10-01T11:25:00,28,28122679,179064
OK,51,25,697,51,2014-10-01T11:30:00,25,28123120,179064
OK,52,24,697,52,2014-10-01T11:35:00,18,28123569,179064
OK,39,33,697,39,2014-10-01T11:40:00,24,28124001,179064
OK,38,34,697,38,2014-10-01T11:45:00,25,28124450,179064
OK,33,39,697,33,2014-10-01T11:50:00,21,28124852,179064
OK,35,37,697,35,2014-10-01T11:55:00,17,28125301,179064
OK,38,34,697,38,2014-10-01T12:00:00,22,28125730,179064
OK,46,28,697,46,2014-10-01T12:10:00,26,28126531,179064
OK,42,30,697,42,2014-10-01T12:15:00,28,28126980,179064
OK,40,32,697,40,2014-10-01T12:20:00,32,28127429,179064
OK,47,27,697,47,2014-10-01T12:25:00,26,28127878,179064
OK,49,26,697,49,2014-10-01T12:30:00,33,28128306,179064
OK,42,30,697,42,2014-10-01T12:35:00,26,28128755,179064
OK,42,30,697,42,2014-10-01T12:40:00,28,28129190,179064
OK,37,35,697,37,2014-10-01T12:45:00,23,28129639,179064
OK,40,32,697,40,2014-10-01T12:50:00,24,28130073,179064
OK,40,32,697,40,2014-10-01T12:55:00,24,28130522,179064
OK,37,35,697,37,2014-10-01T13:00:00,26,28130950,179064
OK,37,35,697,37,2014-10-01T13:05:00,22,28131399,179064
OK,36,36,697,36,2014-10-01T13:10:00,36,28131836,179064
OK,39,33,697,39,2014-10-01T13:15:00,34,28132285,179064
OK,34,38,697,34,2014-10-01T13:20:00,26,28132723,179064
OK,33,39,697,33,2014-10-01T13:25:00,29,28133170,179064
OK,40,32,697,40,2014-10-01T13:30:00,24,28133608,179064
OK,43,30,697,43,2014-10-01T13:35:00,26,28134057,179064
OK,37,35,697,37,2014-10-01T13:40:00,24,28134496,179064
OK,40,32,697,40,2014-10-01T13:45:00,44,28134945,179064
OK,41,31,697,41,2014-10-01T13:50:00,37,28135364,179064
OK,29,44,697,29,2014-10-01T13:55:00,33,28135813,179064
OK,36,36,697,36,2014-10-01T14:00:00,32,28136250,179064
OK,42,30,697,42,2014-10-01T14:05:00,24,28136699,179064
OK,34,38,697,34,2014-10-01T14:10:00,38,28137139,179064
OK,39,33,697,39,2014-10-01T14:15:00,35,28137588,179064
OK,39,33,697,39,2014-10-01T14:20:00,35,28138022,179064
OK,35,37,697,35,2014-10-01T14:25:00,31,28138471,179064
OK,37,35,697,37,2014-10-01T14:30:00,28,28138899,179064
OK,33,39,697,33,2014-10-01T14:35:00,19,28139348,179064
OK,35,37,697,35,2014-10-01T14:40:00,18,28139759,179064
OK,37,35,697,37,2014-10-01T14:45:00,32,28140208,179064
OK,40,32,697,40,2014-10-01T14:50:00,33,28140650,179064
OK,37,35,697,37,2014-10-01T14:55:00,21,28141098,179064
OK,38,34,697,38,2014-10-01T15:00:00,28,28141525,179064
OK,39,33,697,39,2014-10-01T15:05:00,23,28141974,179064
OK,42,30,697,42,2014-10-01T15:10:00,29,28142402,179064
OK,41,31,697,41,2014-10-01T15:15:00,40,28142851,179064
OK,43,30,697,43,2014-10-01T15:20:00,34,28143278,179064
OK,39,33,697,39,2014-10-01T15:25:00,31,28143727,179064
OK,39,33,697,39,2014-10-01T15:30:00,27,28144175,179064
OK,39,33,697,39,2014-10-01T15:35:00,21,28144624,179064
OK,37,35,697,37,2014-10-01T15:40:00,13,28145045,179064
OK,35,37,697,35,2014-10-01T15:45:00,13,28145459,179064
OK,30,43,697,30,2014-10-01T15:50:00,21,28145908,179064
OK,33,39,697,33,2014-10-01T15:55:00,15,28146357,179064
OK,38,34,697,38,2014-10-01T16:00:00,22,28146806,179064
OK,41,31,697,41,2014-10-01T16:05:00,27,28147214,179064
OK,41,31,697,41,2014-10-01T16:10:00,19,28147658,179064
OK,32,40,697,32,2014-10-01T16:15:00,10,28148107,179064
OK,26,49,697,26,2014-10-01T16:20:00,6,28148508,179064
OK,37,35,697,37,2014-10-01T16:25:00,15,28148957,179064
OK,39,33,697,39,2014-10-01T16:30:00,18,28149396,179064
OK,46,28,697,46,2014-10-01T16:35:00,8,28149845,179064
OK,44,29,697,44,2014-10-01T16:40:00,15,28150271,179064
OK,42,30,697,42,2014-10-01T16:45:00,20,28150720,179064
OK,29,44,697,29,2014-10-01T16:50:00,7,28151138,179064
OK,39,33,697,39,2014-10-01T16:55:00,9,28151587,179064
OK,28,46,697,28,2014-10-01T17:05:00,8,28152036,179064
OK,29,44,697,29,2014-10-01T17:10:00,8,28152485,179064
OK,29,44,697,29,2014-10-01T17:15:00,4,28152931,179064
OK,35,37,697,35,2014-10-01T17:20:00,3,28153378,179064
OK,42,30,697,42,2014-10-01T17:25:00,6,28153827,179064
OK,39,33,697,39,2014-10-01T17:30:00,10,28154237,179064
OK,28,46,697,28,2014-10-01T17:35:00,11,28154686,179064
OK,44,29,697,44,2014-10-01T17:40:00,11,28155128,179064
OK,49,26,697,49,2014-10-01T17:45:00,6,28155576,179064
OK,54,24,697,54,2014-10-01T17:50:00,5,28155994,179064
OK,55,23,697,55,2014-10-01T17:55:00,2,28156443,179064
OK,48,27,697,48,2014-10-01T18:00:00,1,28156891,179064
OK,51,25,697,51,2014-10-01T18:05:00,4,28157330,179064
OK,38,34,697,38,2014-10-01T18:10:00,8,28157760,179064
OK,27,48,697,27,2014-10-01T18:15:00,10,28158208,179064
OK,28,46,697,28,2014-10-01T18:20:00,7,28158652,179064
OK,35,37,697,35,2014-10-01T18:25:00,11,28159097,179064
OK,29,44,697,29,2014-10-01T18:35:00,0,28159879,179064
OK,36,36,697,36,2014-10-01T18:40:00,2,28160328,179064
OK,31,41,697,31,2014-10-01T18:45:00,7,28160777,179064
OK,30,43,697,30,2014-10-01T18:50:00,8,28161215,179064
OK,51,25,697,51,2014-10-01T18:55:00,3,28161664,179064
OK,52,24,697,52,2014-10-01T19:00:00,2,28162081,179064
OK,33,39,697,33,2014-10-01T19:05:00,2,28162530,179064
OK,22,59,697,22,2014-10-01T19:10:00,3,28162924,179064
OK,24,54,697,24,2014-10-01T19:15:00,4,28163363,179064
OK,24,54,697,24,2014-10-01T19:20:00,4,28163811,179064
OK,33,39,697,33,2014-10-01T19:25:00,4,28164260,179064
OK,32,40,697,32,2014-10-01T19:30:00,6,28164691,179064
OK,27,48,697,27,2014-10-01T19:35:00,4,28165140,179064
OK,30,43,697,30,2014-10-01T19:40:00,3,28165565,179064
OK,28,46,697,28,2014-10-01T19:45:00,4,28166013,179064
OK,29,44,697,29,2014-10-01T19:55:00,3,28166816,179064
OK,42,30,697,42,2014-10-01T20:00:00,2,28167265,179064
OK,19,68,697,19,2014-10-01T20:10:00,3,28168127,179064
OK,19,68,697,19,2014-10-01T20:15:00,0,28168576,179064
OK,20,64,697,20,2014-10-01T20:20:00,1,28169021,179064
OK,20,64,697,20,2014-10-01T20:25:00,1,28169470,179064
OK,31,41,697,31,2014-10-01T20:30:00,2,28169918,179064
OK,35,37,697,35,2014-10-01T20:35:00,6,28170344,179064
OK,26,49,697,26,2014-10-01T20:40:00,6,28170789,179064
OK,30,43,697,30,2014-10-01T20:45:00,2,28171237,179064
OK,34,38,697,34,2014-10-01T20:50:00,2,28171674,179064
OK,34,38,697,34,2014-10-01T20:55:00,2,28172120,179064
OK,22,59,697,22,2014-10-01T21:00:00,1,28172568,179064
OK,54,24,697,54,2014-10-01T21:05:00,2,28173014,179064
OK,49,26,697,49,2014-10-01T21:10:00,4,28173460,179064
OK,49,26,697,49,2014-10-01T21:15:00,2,28173909,179064
OK,49,26,697,49,2014-10-01T21:20:00,2,28174350,179064
OK,42,30,697,42,2014-10-01T21:25:00,0,28174799,179064
OK,31,41,697,31,2014-10-01T21:35:00,1,28175621,179064
OK,31,41,697,31,2014-10-01T21:40:00,0,28176070,179064
OK,49,26,697,49,2014-10-01T21:45:00,2,28176519,179064
OK,49,26,697,49,2014-10-01T21:50:00,2,28176968,179064
OK,64,20,697,64,2014-10-01T21:55:00,0,28177324,179064
OK,64,20,697,64,2014-10-01T22:00:00,0,28177764,179064
OK,64,20,697,64,2014-10-01T22:05:00,0,28178210,179064
OK,64,20,697,64,2014-10-01T22:10:00,0,28178659,179064
OK,64,20,697,64,2014-10-01T22:15:00,0,28179106,179064
OK,51,25,697,51,2014-10-01T22:20:00,1,28179540,179064
OK,51,25,697,51,2014-10-01T22:25:00,1,28179983,179064
OK,51,25,697,51,2014-10-01T22:30:00,0,28180430,179064
OK,51,25,697,51,2014-10-01T22:35:00,0,28180828,179064
OK,51,25,697,51,2014-10-01T22:40:00,0,28181277,179064
OK,16,81,697,16,2014-10-01T22:45:00,2,28181701,179064
OK,16,81,697,16,2014-10-01T22:50:00,0,28182149,179064
OK,39,33,697,39,2014-10-01T22:55:00,0,28182596,179064
OK,39,33,697,39,2014-10-01T23:00:00,0,28183045,179064
OK,39,33,697,39,2014-10-01T23:10:00,0,28183895,179064
OK,39,33,697,39,2014-10-01T23:15:00,0,28184340,179064
OK,39,33,697,39,2014-10-01T23:20:00,0,28184789,179064
OK,39,33,697,39,2014-10-01T23:25:00,0,28185224,179064
OK,39,33,697,39,2014-10-01T23:30:00,0,28185672,179064
OK,39,33,697,39,2014-10-01T23:40:00,0,28186495,179064
OK,39,33,697,39,2014-10-01T23:45:00,0,28187335,179064
OK,39,33,697,39,2014-10-01T23:50:00,0,28187784,179064
OK,53,24,697,53,2014-10-02T00:00:00,0,28188228,179064
OK,53,24,697,53,2014-10-02T00:10:00,0,28189110,179064
OK,53,24,697,53,2014-10-02T00:15:00,0,28189559,179064
OK,53,24,697,53,2014-10-02T00:20:00,0,28189981,179064
OK,53,24,697,53,2014-10-02T00:25:00,0,28190425,179064
OK,53,24,697,53,2014-10-02T00:30:00,0,28190783,179064
OK,41,31,697,41,2014-10-02T00:35:00,0,28191232,179064
OK,18,72,697,18,2014-10-02T00:45:00,1,28191987,179064
OK,18,72,697,18,2014-10-02T00:50:00,0,28192436,179064
OK,18,72,697,18,2014-10-02T00:55:00,0,28192869,179064
OK,18,72,697,18,2014-10-02T01:00:00,0,28193288,179064
OK,18,72,697,18,2014-10-02T01:05:00,0,28193680,179064
OK,18,72,697,18,2014-10-02T01:10:00,0,28194129,179064
OK,18,72,697,18,2014-10-02T01:15:00,0,28194578,179064
OK,18,72,697,18,2014-10-02T01:25:00,0,28195263,179064
OK,18,72,697,18,2014-10-02T01:30:00,0,28195712,179064
OK,18,72,697,18,2014-10-02T01:35:00,0,28196161,179064
OK,18,72,697,18,2014-10-02T01:40:00,0,28196445,179064
OK,18,72,697,18,2014-10-02T01:45:00,0,28196894,179064
OK,18,72,697,18,2014-10-02T01:50:00,0,28197317,179064
OK,18,72,697,18,2014-10-02T01:55:00,0,28197766,179064
OK,18,72,697,18,2014-10-02T02:00:00,0,28198214,179064
OK,18,72,697,18,2014-10-02T02:05:00,0,28198662,179064
OK,18,72,697,18,2014-10-02T02:10:00,0,28199111,179064
OK,18,72,697,18,2014-10-02T02:15:00,0,28199483,179064
OK,18,72,697,18,2014-10-02T02:20:00,0,28199925,179064
OK,18,72,697,18,2014-10-02T02:25:00,0,28200367,179064
OK,18,72,697,18,2014-10-02T02:30:00,0,28200810,179064
OK,18,72,697,18,2014-10-02T02:35:00,0,28201259,179064
OK,33,39,697,33,2014-10-02T02:45:00,0,28201690,179064
OK,27,48,697,27,2014-10-02T02:50:00,1,28202139,179064
OK,27,48,697,27,2014-10-02T02:55:00,0,28202588,179064
OK,59,22,697,59,2014-10-02T03:00:00,1,28203030,179064
OK,59,22,697,59,2014-10-02T03:05:00,0,28203478,179064
OK,29,44,697,29,2014-10-02T03:15:00,1,28203913,179064
OK,29,44,697,29,2014-10-02T03:30:00,0,28204362,179064
OK,59,22,697,59,2014-10-02T03:35:00,3,28204811,179064
OK,59,22,697,59,2014-10-02T03:40:00,0,28205260,179064
OK,26,49,697,26,2014-10-02T03:45:00,3,28205688,179064
OK,26,49,697,26,2014-10-02T03:50:00,3,28206115,179064
OK,26,49,697,26,2014-10-02T03:55:00,0,28206518,179064
OK,39,33,697,39,2014-10-02T04:00:00,2,28206967,179064
OK,39,33,697,39,2014-10-02T04:05:00,2,28207416,179064
OK,42,30,697,42,2014-10-02T04:10:00,5,28207835,179064
OK,45,28,697,45,2014-10-02T04:15:00,2,28208284,179064
OK,48,27,697,48,2014-10-02T04:20:00,8,28208711,179064
OK,36,36,697,36,2014-10-02T04:25:00,4,28209160,179064
OK,51,25,697,51,2014-10-02T04:30:00,19,28209598,179064
OK,50,25,697,50,2014-10-02T04:35:00,9,28210047,179064
OK,43,30,697,43,2014-10-02T04:40:00,14,28210470,179064
OK,59,22,697,59,2014-10-02T04:45:00,0,28210919,179064
OK,59,22,697,59,2014-10-02T04:50:00,0,28211344,179064
OK,42,30,697,42,2014-10-02T04:55:00,8,28211784,179064
OK,68,19,697,68,2014-10-02T05:00:00,3,28212166,179064
OK,43,30,697,43,2014-10-02T05:05:00,25,28212615,179064
OK,45,28,697,45,2014-10-02T05:10:00,7,28213044,179064
OK,41,31,697,41,2014-10-02T05:15:00,16,28213493,179064
OK,36,36,697,36,2014-10-02T05:20:00,4,28213931,179064
OK,40,32,697,40,2014-10-02T05:25:00,7,28214380,179064
OK,27,48,697,27,2014-10-02T05:30:00,1,28214793,179064
OK,27,48,697,27,2014-10-02T05:35:00,0,28215242,179064
OK,52,24,697,52,2014-10-02T05:40:00,23,28215658,179064
OK,51,25,697,51,2014-10-02T05:45:00,7,28216107,179064
OK,51,25,697,51,2014-10-02T05:50:00,0,28216446,179064
OK,47,27,697,47,2014-10-02T05:55:00,34,28216886,179064
OK,58,22,697,58,2014-10-02T06:00:00,30,28217333,179064
OK,63,20,697,63,2014-10-02T06:05:00,28,28217782,179064
OK,29,44,697,29,2014-10-02T06:10:00,4,28218221,179064
OK,59,22,697,59,2014-10-02T06:15:00,34,28218670,179064
OK,53,24,697,53,2014-10-02T06:20:00,26,28219090,179064
OK,36,36,697,36,2014-10-02T06:25:00,19,28219538,179064
OK,40,32,697,40,2014-10-02T06:30:00,24,28219912,179064
OK,41,31,697,41,2014-10-02T06:35:00,7,28220361,179064
OK,56,23,697,56,2014-10-02T06:40:00,11,28220795,179064
OK,37,35,697,37,2014-10-02T06:45:00,13,28221244,179064
OK,48,27,697,48,2014-10-02T07:00:00,15,28221911,179064
OK,46,28,697,46,2014-10-02T07:05:00,15,28222056,179064
OK,42,30,697,42,2014-10-02T07:10:00,14,28222505,179064
OK,37,35,697,37,2014-10-02T07:15:00,6,28222954,179064
OK,29,44,697,29,2014-10-02T07:20:00,0,28223385,179064
OK,41,31,697,41,2014-10-02T07:25:00,22,28223820,179064
OK,41,31,697,41,2014-10-02T07:35:00,25,28224623,179064
OK,40,32,697,40,2014-10-02T07:40:00,14,28225072,179064
OK,45,28,697,45,2014-10-02T07:45:00,0,28225482,179064
OK,42,30,697,42,2014-10-02T07:50:00,18,28225843,179064
OK,41,31,697,41,2014-10-02T07:55:00,22,28226292,179064
OK,38,34,697,38,2014-10-02T08:00:00,8,28226733,179064
OK,39,33,697,39,2014-10-02T08:05:00,23,28227182,179064
OK,43,30,697,43,2014-10-02T08:10:00,4,28227597,179064
OK,48,27,697,48,2014-10-02T08:20:00,9,28228405,179064
OK,43,30,697,43,2014-10-02T08:25:00,27,28228854,179064
OK,52,24,697,52,2014-10-02T08:30:00,8,28229264,179064
OK,41,31,697,41,2014-10-02T08:35:00,28,28229711,179064
OK,41,31,697,41,2014-10-02T08:40:00,18,28230063,179064
OK,35,37,697,35,2014-10-02T08:45:00,0,28230512,179064
OK,42,30,697,42,2014-10-02T08:50:00,16,28230878,179064
OK,43,30,697,43,2014-10-02T08:55:00,4,28231325,179064
OK,44,29,697,44,2014-10-02T09:00:00,20,28231750,179064
OK,44,29,697,44,2014-10-02T09:15:00,19,28232541,179064
OK,42,30,697,42,2014-10-02T09:20:00,3,28232990,179064
OK,41,31,697,41,2014-10-02T09:25:00,19,28233439,179064
OK,34,38,697,34,2014-10-02T09:30:00,4,28233863,179064
OK,44,29,697,44,2014-10-02T09:40:00,0,28234645,179064
OK,42,30,697,42,2014-10-02T09:45:00,12,28235094,179064
OK,45,28,697,45,2014-10-02T09:50:00,4,28235521,179064
OK,40,32,697,40,2014-10-02T09:55:00,29,28235970,179064
OK,39,33,697,39,2014-10-02T10:00:00,16,28236413,179064
OK,47,27,697,47,2014-10-02T10:05:00,0,28236860,179064
OK,46,28,697,46,2014-10-02T10:10:00,27,28237262,179064
OK,45,28,697,45,2014-10-02T10:15:00,24,28237710,179064
OK,41,31,697,41,2014-10-02T10:20:00,24,28238159,179064
OK,41,31,697,41,2014-10-02T10:25:00,15,28238606,179064
OK,32,40,697,32,2014-10-02T10:30:00,2,28239047,179064
OK,42,30,697,42,2014-10-02T10:35:00,38,28239496,179064
OK,42,30,697,42,2014-10-02T10:40:00,41,28239926,179064
OK,44,29,697,44,2014-10-02T10:45:00,24,28240375,179064
OK,56,23,697,56,2014-10-02T10:50:00,6,28240819,179064
OK,37,35,697,37,2014-10-02T10:55:00,22,28241268,179064
OK,37,35,697,37,2014-10-02T11:00:00,8,28241700,179064
OK,37,35,697,37,2014-10-02T11:05:00,0,28242148,179064
OK,40,32,697,40,2014-10-02T11:10:00,22,28242544,179064
OK,42,30,697,42,2014-10-02T11:15:00,19,28242993,179064
OK,39,33,697,39,2014-10-02T11:20:00,24,28243442,179064
OK,40,32,697,40,2014-10-02T11:25:00,11,28243767,179064
OK,46,28,697,46,2014-10-02T11:30:00,0,28244205,179064
OK,44,29,697,44,2014-10-02T11:35:00,28,28244634,179064
OK,43,30,697,43,2014-10-02T11:40:00,13,28245083,179064
OK,43,30,697,43,2014-10-02T11:45:00,0,28245532,179064
OK,44,29,697,44,2014-10-02T11:50:00,29,28245938,179064
OK,38,34,697,38,2014-10-02T11:55:00,32,28246387,179064
OK,41,31,697,41,2014-10-02T12:00:00,31,28246824,179064
OK,45,28,697,45,2014-10-02T12:05:00,12,28247272,179064
OK,48,27,697,48,2014-10-02T12:10:00,0,28247719,179064
OK,43,30,697,43,2014-10-02T12:15:00,47,28248149,179064
OK,43,30,697,43,2014-10-02T12:20:00,25,28248598,179064
OK,41,31,697,41,2014-10-02T12:25:00,20,28249045,179064
OK,40,32,697,40,2014-10-02T12:30:00,10,28249473,179064
OK,41,31,697,41,2014-10-02T12:35:00,41,28249917,179064
OK,42,30,697,42,2014-10-02T12:40:00,20,28250301,179064
OK,40,32,697,40,2014-10-02T12:45:00,25,28250733,179064
OK,33,39,697,33,2014-10-02T13:20:00,46,28251594,179064
OK,46,28,697,46,2014-10-02T13:30:00,27,28252059,179064
OK,48,27,697,48,2014-10-02T13:35:00,15,28252196,179064
OK,66,19,697,66,2014-10-02T13:40:00,0,28252643,179064
OK,54,24,697,54,2014-10-02T13:45:00,29,28253085,179064
OK,40,32,697,40,2014-10-02T13:50:00,15,28253502,179064
OK,34,38,697,34,2014-10-02T13:55:00,41,28253951,179064
OK,33,39,697,33,2014-10-02T14:10:00,33,28254682,179064
OK,38,34,697,38,2014-10-02T14:15:00,31,28254805,179064
OK,38,34,697,38,2014-10-02T14:20:00,40,28255254,179064
OK,34,38,697,34,2014-10-02T14:25:00,8,28255703,179064
OK,50,25,697,50,2014-10-02T14:30:00,30,28256131,179064
OK,52,24,697,52,2014-10-02T14:35:00,10,28256580,179064
OK,41,31,697,41,2014-10-02T14:40:00,25,28257008,179064
OK,35,37,697,35,2014-10-02T14:45:00,33,28257457,179064
OK,37,35,697,37,2014-10-02T14:50:00,37,28257898,179064
OK,52,24,697,52,2014-10-02T14:55:00,23,28258346,179064
OK,45,28,697,45,2014-10-02T15:00:00,25,28258779,179064
OK,40,32,697,40,2014-10-02T15:05:00,28,28259225,179064
OK,38,34,697,38,2014-10-02T15:10:00,27,28259673,179064
OK,38,34,697,38,2014-10-02T15:15:00,30,28260121,179064
OK,53,24,697,53,2014-10-02T15:20:00,9,28260554,179064
OK,34,38,697,34,2014-10-02T15:25:00,30,28261001,179064
OK,33,39,697,33,2014-10-02T15:35:00,25,28261806,179064
OK,34,38,697,34,2014-10-02T15:40:00,8,28262255,179064
OK,45,28,697,45,2014-10-02T15:45:00,30,28262702,179064
OK,37,35,697,37,2014-10-02T15:50:00,18,28263148,179064
OK,32,40,697,32,2014-10-02T15:55:00,0,28263586,179064
OK,46,28,697,46,2014-10-02T16:05:00,13,28264429,179064
OK,47,27,697,47,2014-10-02T16:10:00,11,28264878,179064
OK,46,28,697,46,2014-10-02T16:15:00,4,28265316,179064
OK,30,43,697,30,2014-10-02T16:25:00,4,28266152,179064
OK,53,24,697,53,2014-10-02T16:30:00,9,28266601,179064
OK,60,21,697,60,2014-10-02T16:35:00,6,28267373,179064
OK,37,35,697,37,2014-10-02T16:45:00,12,28267822,179064
OK,41,31,697,41,2014-10-02T16:50:00,5,28268271,179064
OK,51,25,697,51,2014-10-02T16:55:00,6,28268713,179064
OK,33,39,697,33,2014-10-02T17:00:00,11,28269162,179064